記事タイトル:Comet C/2003 S3 (LINEAR) 

最新の情報は「更新」や「再読み込み」ボタンを押してリロードしてご覧ください。

書き込み欄へ  ヘルプ
お名前: 佐藤 裕久   
M. Bezpalko (Lincoln研究所、MIT)の通報では、9月27日、LINEARよってP.A. 260°に尾が
見える彗星を発見した。

発見位置は次のとおり、

     2003 UT             R.A. (2000) Decl.       Mag.
     Sept.27.37818    4 11 01.82   +28 54 42.2   20.1

軌道要素と位置推算表は次のとおり、

Orbital elements:
    C/2003 S3 (LINEAR)
T 2003 Sept. 19.814 TT                                  MPC
q   8.16889              (2000.0)            P               Q
                   Peri.  164.242       +0.491892       +0.799752
                   Node   226.322       +0.738559       -0.173962
e   1.0            Incl.  151.586       +0.461056       -0.574573
From 25 observations 2003 Sept. 27-29.

Ephemeris:
    C/2003 S3 (LINEAR)
Date    TT    R. A. (2000) Decl.     Delta      r     Elong.  Phase   m1
2003 09 28    04 10.70   +28 53.4    7.649    8.169   118.1     6.2  19.0
2003 10 08    04 04.95   +28 29.7    7.502    8.170   129.1     5.4  19.0
2003 10 18    03 58.26   +28 00.9    7.378    8.171   140.4     4.5  19.0
2003 10 28    03 50.81   +27 26.7    7.283    8.172   151.8     3.3  18.9
2003 11 07    03 42.83   +26 47.2    7.221    8.174   163.1     2.0  18.9
2003 11 17    03 34.60   +26 03.0    7.195    8.176   172.6     0.9  18.9
2003 11 27    03 26.43   +25 15.2    7.207    8.179   169.3     1.3  18.9
2003 12 07    03 18.62   +24 25.2    7.258    8.182   158.5     2.5  18.9
2003 12 17    03 11.44   +23 34.8    7.344    8.186   146.9     3.8  19.0
2003 12 27    03 05.10   +22 45.6    7.463    8.190   135.2     4.9  19.0

(IAUC 8211、MPEC 2003-S85)
[2003年10月2日 23時27分48秒]

この記事への返信をどうぞ。
氏名
E-mail URL



記事一覧に戻る